Home > Weather > Olongapo > Past weeks

Flag for Philippines Past Weather in Olongapo, Philippines — Yesterday and Last 2 Weeks

Now
79 °F

Passing clouds.


Feels Like: 82 °F
Forecast: 79 / 93 °F
Wind: No wind

Location: Subic Bay Weather Station

Current Time: May 29, 2016 at 4:22:34 AM

Latest Report: May 29, 2016 at 2:00 AM


Visibility: N/A

Pressure: 29.80 "Hg

Humidity: 89%

Dew Point: 75 °F

Location of OlongapoLocation

Past Weather in Olongapo — Graph

°F

Olongapo Temperature Yesterday

Maximum temperature yesterday: 90 °F (at 9:00 AM)
Minimum temperature yesterday: 79 °F (at 2:00 AM)
Average temperature yesterday: 84 °F

High & Low Weather Summary for the Past Weeks

 TemperatureHumidityPressure
High99 °F (May 15, 1:00 PM)94% (May 24, 8:00 AM)29.89 "Hg (May 24, 8:00 AM)
Low75 °F (May 25, 6:00 AM)35% (May 15, 1:00 PM)29.68 "Hg (May 16, 4:00 PM)
Average84 °F72%29.79 "Hg
* Reported May 14 2:00 AM — May 29 2:00 AM, Olongapo, Weather by CustomWeather, © 2016

Note: Actual official high and low records may vary slightly from our data, if they occured in-between our weather recording intervals... More about our weather records

Advertising

Olongapo Weather History for the Previous 24 Hours

Scroll right to see more
 ConditionsComfort  
Time TempWeatherWind HumidityBarometerVisibility
2:00 AM
Sun, May 29
79 °FPassing clouds.No wind89%29.80 "HgN/A
1:00 AM79 °FPassing clouds.No wind89%29.83 "HgN/A
12:00 AM79 °FPassing clouds.No wind89%29.83 "HgN/A
11:00 PM
Sat, May 28
79 °FPassing clouds.No wind89%29.86 "HgN/A
10:00 PM81 °FPassing clouds.1 mph84%29.86 "HgN/A
9:00 PM82 °FPassing clouds.1 mph84%29.83 "HgN/A
8:00 PM84 °FPassing clouds.No wind79%29.83 "HgN/A
7:00 PM84 °FPassing clouds.2 mph74%29.83 "HgN/A
6:00 PM86 °FPartly sunny.2 mph75%29.80 "HgN/A
5:00 PM88 °FPartly sunny.1 mph66%29.77 "HgN/A
4:00 PM88 °FBroken clouds.1 mph66%29.80 "HgN/A
3:00 PM86 °FBroken clouds.7 mph75%29.80 "HgN/A
2:00 PM86 °FBroken clouds.7 mph75%29.80 "HgN/A
1:00 PM86 °FThunderstorms. Partly sunny.9 mph75%29.83 "HgN/A
12:00 PM90 °FThunderstorms. Broken clouds.12 mph67%29.86 "HgN/A
11:00 AM90 °FScattered clouds.9 mph67%29.86 "HgN/A
10:00 AM90 °FPartly sunny.3 mph63%29.89 "HgN/A
9:00 AM90 °FThundershowers. Partly sunny.5 mph63%29.89 "HgN/A
8:00 AM86 °FPartly sunny.5 mph70%29.89 "HgN/A
7:00 AM81 °FOvercast.3 mph79%29.86 "HgN/A
6:00 AM79 °FPartly sunny.No wind84%29.86 "HgN/A
5:00 AM79 °FPassing clouds.1 mph84%29.86 "HgN/A
4:00 AM79 °FPassing clouds.2 mph84%29.86 "HgN/A
Weather by CustomWeather, © 2016

See weather overviewHow to use our weather pages